SL-14 DEB, 45271

Orbit data source: Space-Track

SL-14 DEB, 45271 is space debris in LEO originally from a launch on Thu, 15 Aug 1991 UTC launched from the Plesetsk Missile And Space Complex (PKMTR). Debris objects in space refer to the collection of defunct objects orbiting the Earth. Examples of debris include non-operational satellites, rocket bodies, and fragments generated from explosions, collisions, or faulty payload assembly.

Loading next visibility...
Identifier
45271, 1991-056H
Orbit
LEO
Country
Flag of CISCIS
Related business
Manufacturer
Unknown
Mission
Spacecraft
Bus & Motor
Unknown
Mass
Unknown
Launch date (UTC)
1991-08-15 (35 years ago)
Launch vehicle
Unknown
Launch site
Plesetsk Missile And Space Complex (PKMTR)
Object type
Payload
Rocket body
Debris
Shape & HBR
Unknown shape, 0.1 m
Radar Cross Section
Small (<0.1 m²)

Expand to show TLE details & history
Last TLE update: 10 hours ago

TLE from 10 hours ago
0 SL-14 DEB
1 45271U 91056H   26254.53493660 -.00000018  00000-0 -91399-4 0  9991
2 45271  82.3845  97.2347 0050588 132.9525 227.5851 13.06728369313110
Epoch: 2026-09-11T12:50Z
TLE epoch observation values (Epoch: 2026-09-11T12:50:18.522Z)
Latitude
-0.00001°
Longitude
-85.89938°
Altitude
1,264.72 km
Speed
7.211 km/s
True Right ascension
06h 28m 56s
True Declination
0° 00' 00"
Sunlit
Object was in daylight at epoch
Visualization orbit readout
Latitude
Unknown
Longitude
Unknown
Altitude
Unknown
Speed
Unknown
Apparent Right ascension
Unknown
Apparent Declination
Unknown
Sunlit
N/A
Visualization observer readout
Local Sidereal Time
14:58:17
Azimuth
Unknown
Elevation
Unknown
Doppler factor
Unknown
Orbital elements
Apogee altitude
1,271.61 km
Perigee altitude
1,194.603 km
Semi-major axis
7,611.244 km
Eccentricity
0.00506
Inclination
82.3845°
RAAN
97.2347°
Arg. of periapsis
132.9525°
True anomaly
227.15894°
Mean anomaly
227.5851°
Eccentric anomaly
227.37184°
Mean motion
3.26858 °/min
Orbital period
110.14 mins
BSTAR
-0.000091399
Loading maneuver chart data...
Computing Atmospheric mass density...
Loading historical data...
Loading historical data...
Loading historical data...
Loading historical data...
Loading historical data...
Loading historical data...
Loading historical data...

Documentation

Showing up to 5 results
|